Regional Weather Roundup
Issued by NWS

Home | Current Version | Previous Version | Text Only | Print | Product List | Glossary On
Versions: 1 2 3 4 5 6 7 8 9 10 11 12 13 14 15 16 17 18 19 20 21 22 23 24 25 26 27 28 29 30 31 32 33 34 35 36 37 38 39 40 41 42 43 44 45 46 47 48 49 50
000
ASUS43 KMKX 271721
RWRWI

WISCONSIN REGIONAL WEATHER ROUNDUP
NATIONAL WEATHER SERVICE MILWAUKEE/SULLIVAN WI
1200 PM CDT WED AUG 27 2014

NOTE: "FAIR" INDICATES FEW OR NO CLOUDS BELOW 12,000 FEET WITH NO
SIGNIFICANT WEATHER AND/OR OBSTRUCTIONS TO VISIBILITY.

WIZ001-002-006>008-014>016-023>028-271800-
NORTHWEST WISCONSIN

CITY           SKY/WX    TMP DP  RH WIND       PRES   REMARKS
SUPERIOR ARPT  MOSUNNY   65  50  59 SW5       30.22S
ASHLAND        MOSUNNY   66  49  54 VRB7      30.23S
HAYWARD        MOSUNNY   65  48  54 VRB5      30.24R
SIREN          CLOUDY    65  50  59 CALM      30.25R
RICE LAKE      SUNNY     66  50  56 CALM      30.26R
LADYSMITH      SUNNY     66  51  57 W5        30.26R
EAU CLAIRE     MOSUNNY   69  52  54 VRB5      30.22S
MENOMONIE      MOSUNNY   69  52  54 NE5       30.23F
NEW RICHMOND   MOSUNNY   68  51  55 CALM      30.24F
OSCEOLA        MOSUNNY   67  54  61 SE5       30.26S
$$

WIZ003>005-009-010-017-018-271800-
NORTH CENTRAL WISCONSIN

CITY           SKY/WX    TMP DP  RH WIND       PRES   REMARKS
WOODRUFF       MOSUNNY   64  48  57 N3        30.22S
RHINELANDER    MOSUNNY   65  49  56 VRB3      30.22F
EAGLE RIVER    MOSUNNY   62  47  57 W8        30.22S
LAND O LAKES   PTSUNNY   63  47  55 CALM      30.22S
PHILLIPS       MOSUNNY   63  49  59 NW8       30.23S
TOMAHAWK       MOSUNNY   65  48  54 W5        30.23S
MEDFORD        SUNNY     65  50  60 NW6       30.24R
MERRILL        PTSUNNY   66  53  63 W3        30.22S
$$

WIZ029-030-035-036-043>047-271800-
CENTRAL WISCONSIN

CITY           SKY/WX    TMP DP  RH WIND       PRES   REMARKS
WAUSAU         CLOUDY    66  54  65 VRB5      30.21R
MOSINEE        CLOUDY    66  55  68 CALM      30.23S
MARSHFIELD     CLOUDY    69  54  58 VRB6      30.22S
STEVENS POINT  MOSUNNY   67  52  57 SW3       30.22R
WAUPACA        MOSUNNY   72  53  52 CALM      30.21R
WAUTOMA        SUNNY     73  55  53 CALM      30.21S
WISC RAPIDS    SUNNY     72  54  53 CALM      30.22S
CAMP DOUGLAS   MOSUNNY   72  55  56 VRB1      30.22S
$$

WIZ011>013-019>022-031-037>040-048>050-271800-
NORTHEAST WISCONSIN

CITY           SKY/WX    TMP DP  RH WIND       PRES   REMARKS
ANTIGO         CLOUDY    63  52  67 CALM      30.22S
STURGEON BAY   PTSUNNY   66  52  59 NW9       30.19F
GREEN BAY      MOSUNNY   71  55  56 MISG      30.19F
MANITOWOC      SUNNY     68  57  68 SE6       30.18F
APPLETON       PTSUNNY   70  48  46 CALM      30.19F
CLINTONVILLE   MOSUNNY   70  50  49 CALM      30.20S
OSHKOSH        MOSUNNY   70  55  59 CALM      30.19F
$$

WIZ032>034-041-042-053>061-271800-
SOUTHWEST WISCONSIN

CITY           SKY/WX    TMP DP  RH WIND       PRES   REMARKS
LA CROSSE      MOSUNNY   74  55  51 VRB3      30.20F
SPARTA         MOSUNNY   73  53  49 NW5       30.22S
VIROQUA        FAIR      71  56  59 N3        30.22S
BOSCOBEL       MOSUNNY   76  56  49 VRB3      30.20S
PRAIRIE DU CHI MOSUNNY   73  53  50 E5        30.19S
PLATTEVILLE    FAIR      74  56  53 N5        30.21S
$$

WIZ056-057-062-063-064-067-068-271800-
SOUTH CENTRAL WISCONSIN

CITY           SKY/WX    TMP DP  RH WIND       PRES   REMARKS
BARABOO/DELLS  MOSUNNY   71  53  52 CALM      30.21S
LONE ROCK      MOSUNNY   78  58  49 VRB3      30.19F
WATERTOWN      MOSUNNY   71  59  64 N3        30.18S
MADISON        PTSUNNY   74  56  53 NE5       30.19S
MIDDLETON      FAIR      73  55  52 CALM      30.20S
MONROE         SUNNY     73  57  56 NE3       30.19S
JANESVILLE     SUNNY     75  54  46 CALM      30.17S
$$

WIZ051-052-058>065-066-070>072-271800-
SOUTHEAST WISCONSIN

CITY           SKY/WX    TMP DP  RH WIND       PRES   REMARKS
MILWAUKEE      MOSUNNY   70  63  78 N10       30.18R
WAUKESHA       NOT AVBL
MILWAUKEE/TIMM PTSUNNY   72  59  64 NE6       30.19R
RACINE         PTSUNNY   73  63  70 NE7       30.19R
BURLINGTON     MOSUNNY   73  57  56 CALM      30.17S
KENOSHA        PTSUNNY   74  66  76 E8        30.17S
FOND DU LAC    MOSUNNY   73  56  54 CALM      30.19F
SHEBOYGAN      SUNNY     70  57  63 VRB6      30.20R
WEST BEND      PTSUNNY   72  57  60 E6        30.19S
JUNEAU         MOSUNNY   71  58  65 NE3       30.21R
$$

LSZ147-162-271800-
LAKE SUPERIOR

STATION/POSITION TIME  TEMP    WIND        PRES    WAVE
                       AIR SEA DIR/SP/G            HT/PER
                 (UTC) (F)     (DEG/KT/KT) (MB)    (FT/S)
W MID LAKE BUOY  1650   56 56  250/  6/  8 1022.9F   0
DEVILS ISLAND    1700   61     240/  4/  6 1023.6S
PORT WING        1640   61     320/  4/  5 1023.7S
SAXON HARBOR     1640   62      10/  3/  5 1023.7S
$$

LMZ867-665-643>646-271800-
LAKE MICHIGAN

STATION/POSITION TIME  TEMP    WIND        PRES    WAVE
                       AIR SEA DIR/SP/G            HT/PER
                 (UTC) (F)     (DEG/KT/KT) (MB)    (FT/S)
N MID LAKE BUOY  1650   61 66  330/  2/  4 1022.4F   1
NORTHPORT PIER   1600   63     330/  6/  8 1022.4F
SISTER BAY       1641   69     340/  6/  7   N/A
KEWAUNEE LAKESHO 1700   67     120/  5/  6 1021.2F
SHEBOYGAN LAKESH 1700   65 67   40/  5/  6 1022.7R
ATWATER BUOY     1700   68      20/ 10/ 12 1023.0R
MILWAUKEE LAKESH 1700   68      40/ 10/ 11   N/A
S MID LAKE BUOY  1650   67 70   60/  8/ 10 1021.6R   0
KENOSHA   LAKESH 1700   69      30/  8/  9 1021.3R
$$

TC  - TEMPERATURE IN CELSIUS
VSB - VISIBILITY IN STATUTE MILES
WCI - WIND CHILL INDEX
HX  - HEAT INDEX



USA.gov is the U.S. government's official web portal to all federal, state and local government web resources and services.